WX8ASH-13 Weather Reports


time (UTC)temp
F
wind
direction
speed
knots
gust
knots
rain 1hr
in
rain 24hr
in
rain mn
in
humidity
%
barometer
mb
20260510180022 59 305 0.0 4.3 0.00 0.08 0.00 53 1024.6
20260510175517 59 15 0.0 3.5 0.00 0.08 0.00 53 1024.7
20260510175021 59 30 0.0 4.3 0.00 0.08 0.00 56 1024.7
20260510174516 58 305 2.6 4.3 0.00 0.08 0.00 56 1024.8
20260510174046 58 35 1.7 7.0 0.00 0.08 0.00 55 1024.8
20260510173516 58 4 0.0 7.0 0.00 0.08 0.00 52 1024.9
20260510173018 58 332 2.6 7.0 0.00 0.08 0.00 56 1024.9
20260510172516 58 18 1.7 6.1 0.00 0.08 0.00 52 1025.0
20260510172017 58 298 2.6 6.1 0.00 0.08 0.00 57 1025.0
20260510171516 58 359 3.5 6.1 0.00 0.08 0.00 54 1025.1
20260510171017 57 91 3.5 6.1 0.00 0.08 0.00 58 1025.1
20260510170516 57 3 0.0 6.1 0.00 0.08 0.00 58 1025.1
20260510170015 57 357 0.9 6.1 0.00 0.08 0.00 57 1025.1
20260510165518 57 357 2.6 5.2 0.00 0.08 0.00 54 1025.2
20260510165016 57 60 2.6 6.1 0.00 0.08 0.00 57 1025.2
20260510164516 57 23 0.0 7.0 0.00 0.08 0.00 56 1025.1
20260510164016 57 1 0.0 7.0 0.00 0.08 0.00 57 1025.1
20260510163515 57 7 4.3 7.0 0.00 0.08 0.00 55 1025.1
20260510163015 56 329 4.3 6.1 0.00 0.08 0.00 58 1025.0
20260510162515 56 6 1.7 8.7 0.00 0.08 0.00 61 1025.0
20260510162015 56 4 0.0 8.7 0.00 0.08 0.00 59 1025.0
20260510161514 55 56 0.0 8.7 0.00 0.08 0.00 61 1025.0
20260510161044 55 0 1.7 7.8 0.00 0.08 0.00 55 1025.0
20260510160514 55 25 3.5 7.8 0.00 0.08 0.00 59 1025.0
20260510160043 55 20 0.0 7.8 0.00 0.08 0.00 56 1025.0
20260510155554 55 7 0.9 7.8 0.00 0.08 0.00 62 1024.9
20260510155043 54 49 0.9 7.8 0.00 0.08 0.00 63 1024.8
20260510154551 54 14 0.9 7.8 0.00 0.08 0.00 64 1024.8
20260510154043 54 21 1.7 7.8 0.00 0.08 0.00 65 1024.7
20260510153520 54 359 0.0 7.8 0.00 0.08 0.00 64 1024.7
20260510153042 54 356 0.9 7.8 0.00 0.08 0.00 63 1024.6
20260510152544 54 316 1.7 6.1 0.00 0.08 0.00 63 1024.5
20260510152017 54 45 0.0 7.0 0.00 0.08 0.00 67 1024.6
20260510151544 54 0 0.0 7.0 0.00 0.08 0.00 67 1024.5
20260510151044 53 322 5.2 7.0 0.00 0.08 0.00 66 1024.2
20260510150542 53 39 2.6 7.0 0.00 0.08 0.00 67 1024.2
20260510150043 53 82 1.7 7.0 0.00 0.08 0.00 68 1024.2
20260510145542 53 48 2.6 7.0 0.00 0.08 0.00 68 1024.0
20260510145011 53 11 0.0 7.0 0.00 0.08 0.00 67 1023.9
20260510144541 53 1 2.6 7.0 0.00 0.08 0.00 66 1023.8
20260510144050 52 24 0.9 7.0 0.00 0.08 0.00 70 1023.8
20260510143541 52 24 1.7 6.1 0.00 0.08 0.00 71 1023.8
20260510143049 52 11 0.9 7.0 0.00 0.08 0.00 70 1023.7
20260510142540 52 359 0.9 7.0 0.00 0.08 0.00 71 1023.7
20260510142045 52 1 2.6 7.0 0.00 0.08 0.00 69 1023.6
20260510141542 52 32 0.0 5.2 0.00 0.08 0.00 73 1023.6
20260510141046 51 48 0.0 5.2 0.00 0.08 0.00 74 1023.6
20260510140540 51 28 5.2 6.1 0.00 0.08 0.00 74 1023.6
20260510140044 51 336 1.7 6.1 0.00 0.08 0.00 74 1023.5
20260510135540 51 359 4.3 6.1 0.00 0.08 0.00 75 1023.6
20260510135048 50 37 0.9 7.0 0.00 0.08 0.00 74 1023.5
20260510134539 50 20 2.6 7.0 0.00 0.08 0.00 74 1023.6
20260510134042 50 11 0.0 7.0 0.00 0.08 0.00 76 1023.5
20260510133539 49 59 0.0 6.1 0.00 0.08 0.00 81 1023.4
20260510133040 49 56 0.0 6.1 0.00 0.08 0.00 81 1023.6
20260510132542 49 27 0.0 5.2 0.00 0.08 0.00 82 1023.5
20260510132039 49 65 0.0 3.5 0.00 0.08 0.00 85 1023.4
20260510131542 49 352 0.0 0.0 0.00 0.08 0.00 86 1023.3
20260510131040 49 352 0.0 0.0 0.00 0.08 0.00 87 1023.1
20260510130541 49 352 0.0 0.0 0.00 0.08 0.00 87 1023.1
20260510130038 49 352 0.0 0.9 0.00 0.08 0.00 87 1023.2
20260510125546 48 352 0.0 0.9 0.00 0.08 0.00 88 1023.1
20260510125038 48 18 0.0 1.7 0.00 0.08 0.00 88 1023.0
20260510124541 48 18 0.0 1.7 0.00 0.08 0.00 88 1022.9
20260510124037 48 18 0.0 2.6 0.00 0.08 0.00 89 1022.7
20260510123540 48 10 0.0 2.6 0.00 0.08 0.00 89 1022.4
20260510123038 48 41 0.0 2.6 0.00 0.08 0.00 89 1022.4
20260510122540 48 11 0.9 1.7 0.00 0.08 0.00 89 1022.1
20260510122052 48 23 0.0 1.7 0.00 0.08 0.00 88 1022.1
20260510121545 48 8 0.0 4.3 0.00 0.08 0.00 88 1022.0
20260510121036 48 23 0.0 4.3 0.00 0.08 0.00 89 1021.9
20260510120540 48 23 0.0 4.3 0.00 0.08 0.00 88 1021.8
20260510120036 48 6 0.0 3.5 0.00 0.08 0.00 88 1021.7
20260510115541 48 3 0.0 3.5 0.00 0.08 0.00 87 1021.5
20260510115036 48 4 0.0 3.5 0.00 0.08 0.00 87 1021.5
20260510114538 48 0 0.0 0.0 0.00 0.08 0.00 87 1021.4
20260510114036 48 0 0.0 0.0 0.00 0.08 0.00 87 1021.3
20260510113538 48 0 0.0 0.0 0.00 0.08 0.00 87 1021.4
20260510113036 48 0 0.0 0.0 0.00 0.08 0.00 87 1021.3
20260510112539 48 0 0.0 0.0 0.00 0.08 0.00 87 1021.2
20260510112035 47 0 0.0 0.0 0.00 0.08 0.00 88 1021.1
20260510111535 47 0 0.0 0.0 0.00 0.08 0.00 89 1020.9
20260510111042 47 0 0.0 0.0 0.00 0.08 0.00 90 1020.5
20260510110535 47 0 0.0 0.0 0.00 0.08 0.00 91 1020.6
20260510110059 47 0 0.0 0.0 0.00 0.08 0.00 92 1020.5
20260510105550 47 0 0.0 0.0 0.00 0.08 0.00 93 1020.4
20260510105035 47 0 0.0 0.0 0.00 0.08 0.00 94 1020.5
20260510104537 47 0 0.0 0.0 0.00 0.08 0.00 94 1020.5
20260510104033 47 0 0.0 0.0 0.00 0.08 0.00 94 1020.0
20260510103538 47 0 0.0 0.0 0.00 0.08 0.00 94 1020.0
20260510103034 47 0 0.0 0.0 0.00 0.08 0.00 94 1019.8
20260510102534 47 0 0.0 0.0 0.00 0.08 0.00 94 1019.7
20260510102058 47 0 0.0 0.0 0.00 0.08 0.00 93 1019.6
20260510101533 46 0 0.0 0.0 0.00 0.08 0.00 93 1019.6
20260510101046 46 0 0.0 0.0 0.00 0.08 0.00 92 1019.5
20260510100533 46 0 0.0 0.0 0.00 0.08 0.00 92 1019.5
20260510100036 46 0 0.0 0.0 0.00 0.08 0.00 91 1019.3
20260510095533 46 0 0.0 0.0 0.00 0.08 0.00 90 1019.4
20260510095033 46 0 0.0 0.0 0.00 0.08 0.00 90 1019.2
20260510094533 46 0 0.0 0.0 0.00 0.08 0.00 90 1019.5
20260510094032 47 0 0.0 0.0 0.00 0.08 0.00 89 1019.3
20260510093541 47 0 0.0 0.0 0.00 0.08 0.00 89 1019.2
20260510093032 47 0 0.0 0.0 0.00 0.08 0.00 88 1019.3
20260510092532 47 0 0.0 0.0 0.00 0.08 0.00 87 1019.1
20260510092053 48 0 0.0 0.0 0.00 0.08 0.00 86 1019.0
20260510091531 48 0 0.0 0.0 0.00 0.08 0.00 86 1019.1
20260510091048 48 0 0.0 0.0 0.00 0.08 0.00 85 1019.0
20260510090532 48 0 0.0 0.0 0.00 0.08 0.00 84 1018.9
20260510090031 48 0 0.0 0.0 0.00 0.08 0.00 84 1019.0
20260510085540 49 0 0.0 0.0 0.00 0.08 0.00 83 1018.8
20260510085031 49 0 0.0 0.0 0.00 0.08 0.00 84 1018.6
20260510084531 49 0 0.0 0.0 0.00 0.08 0.00 82 1018.6
20260510084038 49 0 0.0 0.0 0.00 0.08 0.00 81 1018.6
20260510083530 49 0 0.0 0.0 0.00 0.08 0.00 80 1018.5
20260510083030 49 0 0.0 0.0 0.00 0.08 0.00 78 1018.3
20260510082536 50 0 0.0 0.0 0.00 0.08 0.00 79 1017.9
20260510082031 50 0 0.0 0.0 0.00 0.08 0.00 79 1018.1
20260510081529 50 0 0.0 0.0 0.00 0.08 0.00 79 1017.8
20260510081039 50 0 0.0 0.0 0.00 0.08 0.00 79 1017.7
20260510080530 50 0 0.0 0.0 0.00 0.08 0.00 80 1017.7
20260510080044 50 0 0.0 0.0 0.00 0.09 0.00 79 1017.7
20260510075531 50 0 0.0 0.9 0.00 0.09 0.00 79 1017.8
20260510075037 50 0 0.0 7.0 0.00 0.09 0.00 80 1017.7
20260510074529 50 0 0.0 7.0 0.00 0.09 0.00 79 1017.7
20260510074028 51 7 0.0 7.0 0.00 0.09 0.00 82 1017.6
20260510073537 51 359 0.0 1.7 0.00 0.09 0.00 82 1017.5
20260510073030 51 11 0.0 8.7 0.00 0.09 0.00 83 1017.4
20260510072528 52 11 0.9 8.7 0.00 0.09 0.00 84 1017.5
20260510072030 52 42 0.0 8.7 0.00 0.09 0.00 85 1017.4
20260510071544 53 35 3.5 5.2 0.00 0.10 0.00 86 1017.4
20260510071027 53 0 0.0 4.3 0.00 0.10 0.00 89 1017.4
20260510070529 54 11 0.0 4.3 0.00 0.10 0.00 92 1017.4
20260510070032 54 0 0.0 3.5 0.00 0.10 0.00 93 1017.3
20260510065527 55 0 0.0 3.5 0.00 0.10 0.00 93 1017.2
20260510065027 55 0 0.0 3.5 0.00 0.10 0.00 92 1017.0
20260510064536 55 290 0.0 0.0 0.00 0.10 0.00 93 1016.9
20260510064029 55 290 0.0 0.0 0.00 0.10 0.00 93 1016.9
20260510063527 55 290 0.0 0.0 0.00 0.11 0.00 93 1016.9
20260510063035 55 290 0.0 0.0 0.00 0.12 0.00 93 1016.9
20260510062527 56 290 0.0 0.0 0.00 0.14 0.00 94 1016.8
20260510062026 56 290 0.0 4.3 0.00 0.16 0.00 94 1016.7
20260510061534 56 290 0.0 6.1 0.00 0.17 0.00 94 1016.6
20260510061041 56 290 0.0 6.1 0.00 0.18 0.00 95 1016.6
20260510060525 55 287 0.0 6.1 0.00 0.19 0.00 95 1016.5
20260510060027 55 293 1.7 6.1 0.00 0.22 0.00 95 1016.6
20260510055545 55 281 0.0 6.1 0.00 0.22 0.00 96 1016.4
20260510055025 55 281 0.0 6.1 0.00 0.22 0.00 96 1016.3
20260510054526 55 322 1.7 3.5 0.00 0.22 0.00 96 1016.3
20260510054032 54 267 0.9 3.5 0.00 0.22 0.00 96 1016.2
20260510053525 54 229 0.0 0.0 0.00 0.22 0.00 96 1016.0
20260510053025 55 229 0.0 0.0 0.00 0.22 0.00 96 1015.8
20260510052534 55 229 0.0 0.0 0.00 0.23 0.00 96 1015.8
20260510052024 55 229 0.0 0.0 0.00 0.24 0.00 96 1015.8
20260510051526 55 229 0.0 0.0 0.00 0.25 0.00 96 1015.7
20260510051028 55 229 0.0 0.0 0.00 0.27 0.00 96 1015.7
20260510050524 55 229 0.0 6.1 0.00 0.29 0.00 96 1015.6
20260510050039 55 229 0.0 6.1 0.00 0.30 0.00 96 1015.6
20260510045525 55 229 0.0 7.8 0.00 0.31 0.00 97 1015.6
20260510045031 55 250 0.0 7.8 0.00 0.32 0.00 97 1015.6
20260510044531 55 205 0.0 7.8 0.00 0.32 0.00 97 1015.6
20260510044023 55 271 0.0 7.8 0.00 0.32 0.00 97 1015.6
20260510043523 55 242 0.0 7.8 0.00 0.32 0.00 97 1015.5
20260510043038 55 274 0.0 6.1 0.00 0.32 0.00 97 1015.6
20260510042544 55 266 3.5 6.1 0.00 0.32 0.00 97 1015.6
20260510042030 55 253 2.6 6.1 0.00 0.32 0.00 97 1015.6
20260510041526 55 259 0.0 6.1 0.00 0.33 0.00 97 1015.4
20260510041038 54 197 0.0 6.1 0.00 0.36 0.00 97 1015.3
20260510040522 54 242 0.0 4.3 0.00 0.37 0.00 97 1015.2
20260510040108 54 253 0.0 2.6 0.00 0.37 0.00 97 1015.3
20260510035538 54 203 0.0 0.9 0.00 0.37 0.37 97 1015.2
20260510035021 54 203 0.0 0.9 0.00 0.37 0.37 97 1015.2
20260510034527 54 191 0.0 2.6 0.00 0.38 0.37 97 1015.2
20260510034021 54 191 0.0 2.6 0.00 0.38 0.37 97 1015.2
20260510033536 54 179 0.9 2.6 0.00 0.38 0.37 97 1015.2
20260510033028 54 208 0.0 1.7 0.00 0.38 0.37 97 1015.3
20260510032538 54 208 0.0 1.7 0.00 0.40 0.37 97 1015.2
20260510032020 54 181 0.0 2.6 0.00 0.40 0.37 97 1015.3
20260510031528 55 141 0.0 2.6 0.00 0.40 0.37 97 1015.2
20260510031020 55 141 0.0 2.6 0.00 0.40 0.37 97 1015.2
20260510030535 55 214 0.0 0.0 0.00 0.41 0.37 97 1015.3
20260510030050 55 214 0.0 0.0 0.00 0.41 0.37 97 1015.3
20260510025521 55 214 0.0 0.0 0.01 0.41 0.37 97 1015.3
20260510025020 55 214 0.0 0.0 0.01 0.41 0.37 97 1015.3
20260510024550 55 214 0.0 0.0 0.02 0.42 0.37 97 1015.4
20260510024020 56 214 0.0 0.0 0.02 0.42 0.37 97 1015.5
20260510023520 56 214 0.0 0.0 0.02 0.42 0.37 97 1015.3
20260510023028 56 214 0.0 0.0 0.02 0.42 0.37 97 1015.2
20260510022519 56 214 0.0 0.0 0.02 0.42 0.37 97 1015.1
20260510022020 56 214 0.0 0.9 0.02 0.42 0.37 97 1015.2
20260510021523 55 214 0.0 1.7 0.02 0.42 0.37 97 1015.3
20260510021018 55 214 0.0 1.7 0.02 0.42 0.37 97 1015.0
20260510020549 55 200 0.0 1.7 0.02 0.42 0.37 96 1015.0
20260510020022 55 260 0.0 1.7 0.02 0.42 0.37 96 1015.3
20260510015518 55 166 0.0 0.0 0.01 0.41 0.36 96 1014.8
20260510015048 56 166 0.0 0.0 0.01 0.41 0.36 96 1014.8
20260510014519 55 166 0.0 0.0 0.00 0.41 0.35 96 1014.7
20260510014018 55 166 0.0 0.0 0.00 0.41 0.35 96 1014.5
20260510013518 55 166 0.0 0.9 0.00 0.41 0.35 96 1014.5
20260510013027 55 166 0.0 2.6 0.00 0.41 0.35 96 1014.5
20260510012517 55 166 0.0 2.6 0.00 0.41 0.35 96 1014.5
20260510012018 56 181 0.9 2.6 0.00 0.41 0.35 96 1014.3
20260510011548 56 259 0.0 2.6 0.00 0.41 0.35 96 1014.2
20260510011017 56 259 0.0 2.6 0.00 0.41 0.35 96 1014.2
20260510010517 56 259 0.0 2.6 0.01 0.41 0.35 96 1014.2
20260510010047 56 298 0.0 0.0 0.02 0.41 0.35 96 1014.0
20260510005533 56 298 0.0 0.0 0.02 0.50 0.35 96 1013.9
20260510005016 56 298 0.0 0.0 0.02 0.50 0.35 96 1013.9
20260510004517 56 298 0.0 0.0 0.02 0.50 0.35 96 1013.9
20260510004018 56 298 0.0 0.0 0.03 0.50 0.35 96 1013.7
20260510003516 56 298 0.0 0.0 0.06 0.50 0.35 96 1013.9
20260510003017 56 298 0.0 2.6 0.06 0.50 0.35 96 1013.9
20260510002518 56 298 0.0 5.2 0.06 0.50 0.35 96 1013.9
20260510002015 56 298 0.0 8.7 0.06 0.50 0.35 96 1013.9
20260510001516 56 287 0.0 8.7 0.06 0.50 0.35 96 1013.6
20260510001022 56 314 5.2 8.7 0.06 0.50 0.35 96 1014.4
20260510000515 56 280 1.7 7.8 0.05 0.49 0.34 96 1014.7
20260510000046 56 311 3.5 10.4 0.04 0.48 0.33 95 1014.2
20260509235603 56 304 7.0 10.4 0.04 0.48 0.33 95 1014.0
20260509235014 57 314 5.2 10.4 0.04 0.49 0.33 95 1014.0
20260509234544 57 330 2.6 12.2 0.04 0.49 0.33 93 1014.0
20260509234015 59 354 2.6 20.9 0.03 0.48 0.32 92 1013.9
20260509233514 62 302 6.1 20.9 0.00 0.45 0.29 86 1013.7
20260509232515 68 304 7.0 19.1 0.00 0.46 0.29 65 1013.3
20260509232014 68 315 4.3 9.6 0.00 0.46 0.29 60 1012.4
20260509231543 67 300 0.0 7.0 0.00 0.46 0.29 61 1012.3
20260509231052 67 229 0.9 7.0 0.00 0.56 0.29 62 1012.3
20260509230513 67 291 1.7 10.4 0.00 0.56 0.29 62 1012.3
20260509230043 68 271 0.0 10.4 0.00 0.66 0.29 63 1011.9
20260509225547 68 297 1.7 10.4 0.00 0.66 0.29 60 1011.9
20260509225046 68 315 2.6 10.4 0.00 0.66 0.29 59 1012.1
20260509224542 68 229 2.6 8.7 0.00 0.66 0.29 59 1012.1
20260509224045 69 236 3.5 11.3 0.00 0.76 0.29 59 1012.1
20260509223550 69 308 1.7 11.3 0.00 0.76 0.29 58 1012.1
20260509223042 69 305 2.6 13.0 0.00 0.76 0.29 57 1011.9
20260509222542 69 283 1.7 13.0 0.00 0.76 0.29 56 1011.9
20260509222049 70 255 1.7 13.0 0.00 0.76 0.29 55 1011.9
20260509221543 70 271 6.1 13.0 0.00 0.76 0.29 56 1011.9
20260509221041 69 263 1.7 12.2 0.00 0.76 0.29 56 1011.9
20260509220544 69 236 1.7 12.2 0.00 0.76 0.29 57 1011.9
20260509220044 70 260 1.7 12.2 0.00 0.76 0.29 55 1012.1
20260509215541 70 281 4.3 11.3 0.00 0.76 0.29 55 1011.9
20260509215045 70 232 2.6 15.6 0.00 0.76 0.29 54 1011.9
20260509214542 70 242 0.9 15.6 0.00 0.76 0.29 57 1011.9
20260509214040 70 284 0.9 13.9 0.00 0.76 0.29 56 1011.9
20260509213542 70 233 1.7 13.9 0.00 0.76 0.29 56 1011.8
20260509213044 70 250 7.0 11.3 0.00 0.76 0.29 57 1011.9
20260509212555 70 219 4.3 16.5 0.00 0.76 0.29 57 1011.8
20260509212041 70 304 6.1 16.5 0.00 0.76 0.29 55 1011.8
20260509211544 69 229 4.3 16.5 0.00 0.76 0.29 56 1011.9
20260509211039 69 290 5.2 13.9 0.00 0.76 0.29 57 1012.1
20260509210540 69 276 0.9 14.8 0.00 0.76 0.29 56 1012.1
20260509210047 70 298 1.7 14.8 0.00 0.76 0.29 55 1012.2
20260509205539 69 212 3.5 14.8 0.00 0.76 0.29 57 1012.2
20260509205039 70 255 7.0 13.9 0.00 0.76 0.29 56 1012.3
20260509204545 70 293 0.9 13.9 0.00 0.76 0.29 57 1012.5
20260509204040 70 269 3.5 13.0 0.00 0.76 0.29 57 1012.5
20260509203539 70 259 0.9 12.2 0.00 0.76 0.29 59 1012.6
20260509203055 70 221 7.8 12.2 0.00 0.76 0.29 57 1012.7
20260509202538 69 226 0.9 13.0 0.00 0.76 0.29 59 1012.7
20260509202039 69 284 0.0 13.0 0.00 0.76 0.29 59 1012.7
20260509201547 69 284 0.9 13.0 0.00 0.76 0.29 59 1012.8
20260509201038 69 210 0.0 11.3 0.00 0.76 0.29 58 1012.9
20260509200539 69 294 4.3 9.6 0.00 0.76 0.29 59 1012.9
20260509200051 69 284 2.6 13.0 0.00 0.76 0.29 59 1013.0
20260509195537 69 284 0.9 13.0 0.00 0.76 0.29 61 1013.1
20260509195039 69 285 5.2 13.0 0.00 0.76 0.29 60 1013.2
20260509194602 69 274 3.5 12.2 0.00 0.76 0.29 61 1013.2
20260509194037 69 221 1.7 12.2 0.00 0.76 0.29 61 1013.2
20260509193556 68 219 1.7 12.2 0.00 0.76 0.29 63 1013.2
20260509193038 68 239 7.8 12.2 0.00 0.76 0.29 61 1013.3
20260509192536 69 276 0.9 13.0 0.00 0.76 0.29 60 1013.3
20260509192040 69 278 3.5 13.0 0.00 0.76 0.29 63 1013.3
20260509191542 69 264 1.7 13.0 0.00 0.76 0.29 64 1013.2
20260509191036 69 260 0.0 13.0 0.00 0.76 0.29 64 1013.2
20260509190542 69 278 5.2 13.0 0.00 0.76 0.29 65 1013.3
20260509190036 68 259 4.3 13.0 0.00 0.86 0.29 62 1013.4
20260509185536 68 190 3.5 11.3 0.00 0.86 0.29 63 1013.5
20260509185046 67 252 0.0 11.3 0.00 0.86 0.29 66 1013.5
20260509184535 67 260 4.3 11.3 0.00 0.86 0.29 69 1013.6
20260509184036 66 248 5.2 9.6 0.00 0.86 0.29 66 1013.6
20260509183544 67 252 0.0 11.3 0.00 0.86 0.29 65 1013.7
20260509183035 67 264 0.9 11.3 0.00 0.86 0.29 66 1013.7
20260509182535 67 270 0.0 11.3 0.00 0.86 0.29 66 1013.7
20260509182043 67 287 2.6 7.0 0.00 0.86 0.29 66 1013.6
20260509181534 66 243 1.7 11.3 0.00 0.86 0.29 67 1013.5
20260509181035 66 307 0.0 12.2 0.00 0.86 0.29 68 1013.7
20260509180541 66 262 1.7 12.2 0.00 0.86 0.29 67 1013.7